15min,AgWx,beryljct,423,01OCT2020:00:00:00,48.8,12.87,45.5,46.0,47.8,49.5,46.0,41,53,30,0.559,25.0,30.6,19.6,1.622,1.8,189,29,3.4,-0.00007,-0.00007,57.3,61.7,9,0,.,.,4.27,0.00,0.00
15min,AgWx,beryljct,423,01OCT2020:00:15:00,48.2,12.85,41.0,45.0,47.8,53.5,42.2,37,53,23,0.330,22.3,29.7,13.7,2.061,2.7,174,20,4.1,0.00004,0.00010,57.0,61.7,10,0,.,.,4.28,0.00,0.00
15min,AgWx,beryljct,423,01OCT2020:00:30:00,47.3,12.84,42.1,42.0,44.1,46.5,41.3,50,64,28,0.528,26.2,32.2,15.1,1.469,1.6,183,53,3.2,-0.00011,-0.00013,56.7,61.5,9,0,.,.,4.28,0.00,0.00
15min,AgWx,beryljct,423,01OCT2020:00:45:00,45.9,12.82,37.5,38.1,40.8,42.0,38.1,49,62,33,0.384,22.6,28.8,14.3,2.324,1.6,151,43,3.7,-0.00010,-0.00012,56.4,61.5,9,0,.,.,4.28,0.00,0.00
15min,AgWx,beryljct,423,01OCT2020:01:00:00,44.4,12.81,40.5,40.4,39.1,41.0,37.5,39,50,31,0.263,16.0,20.7,11.9,5.48,3.3,176,12,5.6,0.00007,0.00012,56.1,61.4,9,0,.,.,4.28,0.00,0.00
15min,AgWx,beryljct,423,01OCT2020:01:15:00,43.4,12.8,39.2,41.7,39.5,41.7,38.0,46,61,30,0.401,19.9,25.8,11.7,2.653,2.7,201,12,5.9,0.00001,0.00004,55.8,61.3,9,0,.,.,4.28,0.00,0.00
15min,AgWx,beryljct,423,01OCT2020:01:30:00,42.4,12.78,35.4,35.8,38.9,41.4,35.8,51,61,41,0.302,22.1,26.7,15.0,2.061,1.5,171,31,2.8,-0.00011,-0.00013,55.5,61.2,9,0,.,.,4.28,0.00,0.00
15min,AgWx,beryljct,423,01OCT2020:01:45:00,41.2,12.8,36.1,36.2,35.1,36.6,34.2,53,64,42,0.440,19.7,24.0,14.9,2.938,1.5,111,62,3.0,-0.00011,-0.00014,55.2,61.1,9,0,.,.,4.28,0.00,0.00
15min,AgWx,beryljct,423,01OCT2020:02:00:00,40.2,12.78,34.3,34.1,34.9,36.1,34.1,56,62,51,0.360,20.6,24.4,18.3,2.784,3.4,321,9.6,4.6,0.00001,0.00003,54.9,61.0,9,0,.,.,4.28,0.00,0.00
15min,AgWx,beryljct,423,01OCT2020:02:15:00,39.3,12.76,36.6,35.9,35.2,36.2,33.8,48,59,41,0.333,17.4,20.9,14.9,0.986,1.4,354,12,2.8,-0.00011,-0.00014,54.6,60.9,9,0,.,.,4.28,0.00,0.00
15min,AgWx,beryljct,423,01OCT2020:02:30:00,38.6,12.75,38.4,37.6,36.2,37.6,34.6,47,55,43,0.339,17.8,19.9,16.1,3.047,2.6,329,17,3.7,-0.00001,0.00001,54.3,60.8,9,0,.,.,4.29,0.00,0.00
15min,AgWx,beryljct,423,01OCT2020:02:45:00,38.2,12.75,39.3,39.1,38.0,39.3,36.9,44,50,38,0.306,17.7,20.0,15.5,0,1.4,330,4.2,3.2,-0.00011,-0.00013,54.0,60.6,9,0,.,.,4.28,0.00,0.00
15min,AgWx,beryljct,423,01OCT2020:03:00:00,37.9,12.73,36.3,35.9,37.0,39.3,35.8,51,57,36,0.400,20.2,22.1,14.7,0.57,0.6,209,41,1.5,-0.00021,-0.00030,53.7,60.5,9,0,.,.,4.28,0.00,0.00
15min,AgWx,beryljct,423,01OCT2020:03:15:00,37.6,12.72,35.1,33.8,36.1,37.2,33.7,50,56,47,0.355,19.4,21.6,17.7,3.661,1.9,183,24,4.6,-0.00007,-0.00008,53.5,60.4,9,0,.,.,4.29,0.00,0.00
15min,AgWx,beryljct,423,01OCT2020:03:30:00,37.1,12.72,32.9,32.8,33.5,34.3,32.8,54,61,46,0.387,18.5,21.0,15.2,2.718,3.4,189,14,5.0,0.00002,0.00005,53.2,60.3,9,0,.,.,4.29,0.00,0.00
15min,AgWx,beryljct,423,01OCT2020:03:45:00,36.5,12.69,35.1,33.9,33.8,35.2,32.5,50,63,41,0.316,17.0,21.5,13.6,1.381,2.3,189,10,3.2,-0.00003,-0.00002,52.9,60.2,9,0,.,.,4.28,0.00,0.00
15min,AgWx,beryljct,423,01OCT2020:04:00:00,36.0,12.67,31.8,31.7,34.2,35.8,31.7,52,74,40,0.399,18.1,25.8,13.0,2.28,1.3,244,59,3.5,-0.00012,-0.00015,52.6,60.0,9,0,.,.,4.29,0.01,0.00
15min,AgWx,beryljct,423,01OCT2020:04:15:00,35.6,12.67,32.0,31.5,32.0,33.2,31.1,62,69,53,0.393,20.5,22.4,17.9,0,0.8,357,14,2.7,-0.00017,-0.00024,52.4,59.9,9,0,.,.,4.29,0.00,0.00
15min,AgWx,beryljct,423,01OCT2020:04:30:00,35.0,12.65,32.2,33.1,33.3,35.0,31.5,58,68,46,0.418,19.9,23.0,16.2,2.938,0.9,51,53,3.0,-0.00016,-0.00022,52.1,59.8,9,0,.,.,4.29,0.00,0.00
15min,AgWx,beryljct,423,01OCT2020:04:45:00,34.6,12.65,31.2,31.1,31.2,32.9,30.6,59,69,48,0.391,18.3,23.4,13.8,0.46,1.6,179,0.1,2.8,-0.00010,-0.00012,51.9,59.7,9,0,.,.,4.29,0.01,0.00
15min,AgWx,beryljct,423,01OCT2020:05:00:00,34.1,12.66,32.2,31.7,32.0,32.8,30.9,63,68,50,0.401,20.6,22.6,15.6,0.921,0.6,179,0.1,1.3,-0.00019,-0.00027,51.6,59.5,9,0,.,.,4.29,0.00,0.00
15min,AgWx,beryljct,423,01OCT2020:05:15:00,33.6,12.66,34.3,33.5,31.6,33.6,30.7,69,76,53,0.341,22.7,24.4,18.0,1.162,0.1,149,13,1.2,-0.00024,-0.00038,51.4,59.4,9,0,.,.,4.29,0.00,0.00
15min,AgWx,beryljct,423,01OCT2020:05:30:00,33.2,12.65,31.7,31.1,30.7,33.7,29.2,65,72,53,0.324,20.3,22.5,16.7,1.206,1.1,111,13,2.4,-0.00014,-0.00019,51.2,59.3,9,0,.,.,4.29,0.00,0.00
15min,AgWx,beryljct,423,01OCT2020:05:45:00,32.8,12.63,29.9,29.7,30.9,31.5,29.6,57,71,51,0.396,17.2,21.5,15.0,0,1.0,125,4.4,1.9,-0.00014,-0.00019,50.9,59.1,9,0,.,.,4.29,0.00,0.00
15min,AgWx,beryljct,423,01OCT2020:06:00:00,32.3,12.62,30.0,29.7,29.8,30.2,29.5,69,74,63,0.390,21.0,22.5,18.9,0.702,0.1,163,0.0,0.7,0.00001,0.00001,50.7,59.0,9,0,.,.,4.29,0.00,0.00
15min,AgWx,beryljct,423,01OCT2020:06:15:00,31.9,12.63,31.7,30.9,30.4,31.0,29.6,58,71,52,0.303,17.3,21.4,15.3,2.148,1.7,141,14,3.0,0.00012,0.00021,50.5,58.9,9,0,.,.,4.29,0.00,0.00
15min,AgWx,beryljct,423,01OCT2020:06:30:00,31.8,12.63,29.6,29.1,29.6,31.2,28.8,59,73,48,0.331,16.7,21.2,12.2,1.096,2.1,179,14,3.0,0.00015,0.00025,50.2,58.8,9,2,.,.,4.29,0.00,0.00
15min,AgWx,beryljct,423,01OCT2020:06:45:00,31.6,12.65,32.2,32.7,31.9,33.2,29.2,49,61,45,0.325,14.8,17.4,13.8,1.469,0.6,193,0.3,1.5,0.00011,0.00015,50.0,58.6,9,11,.,.,4.29,0.00,0.00
15min,AgWx,beryljct,423,01OCT2020:07:00:00,31.8,12.71,30.2,29.5,30.9,32.6,29.2,56,70,43,0.252,17.0,20.6,10.2,3.486,2.4,171,21,4.6,0.00037,0.00051,49.8,58.5,9,52,.,.,4.29,0.00,0.00
15min,AgWx,beryljct,423,01OCT2020:07:15:00,32.4,12.8,32.9,31.8,30.4,31.8,29.5,54,59,46,0.342,15.5,18.1,11.5,0,1.6,183,16,3.6,0.00044,0.00056,49.6,58.4,9,92,.,.,4.29,0.00,0.00
15min,AgWx,beryljct,423,01OCT2020:07:30:00,33.8,13.03,34.5,34.3,33.0,34.3,31.9,58,66,48,0.433,19.7,23.6,15.4,1.228,0.3,213,30,2.1,0.00054,0.00059,49.4,58.2,9,140,.,.,4.29,0.00,0.00
15min,AgWx,beryljct,423,01OCT2020:07:45:00,36.2,13.41,38.9,38.3,36.5,38.3,34.2,69,73,64,0.540,27.4,29.8,24.2,0,0.5,323,13,2.1,0.00075,0.00082,49.2,58.1,9,186,.,.,4.29,0.00,0.00
15min,AgWx,beryljct,423,01OCT2020:08:00:00,39.4,13.95,42.4,41.6,40.0,41.6,38.4,67,72,55,0.488,29.8,31.4,26.5,0,0.1,31,0.0,0.9,0.00098,0.00105,49.0,58.0,9,232,.,.,4.28,0.00,0.00
15min,AgWx,beryljct,423,01OCT2020:08:15:00,43.0,14.57,45.4,44.7,43.2,44.7,41.7,56,59,53,0.556,28.4,30.6,26.5,1.096,0.2,40,4.7,1.1,0.00126,0.00136,48.9,57.8,9,282,.,.,4.28,0.00,0.00
15min,AgWx,beryljct,423,01OCT2020:08:30:00,46.6,14.52,48.9,48.1,46.5,48.1,44.7,44,55,35,0.437,25.7,29.4,21.3,0.877,0.4,47,0.0,1.3,0.00159,0.00173,48.8,57.7,9,337,.,.,4.28,0.00,0.00
15min,AgWx,beryljct,423,01OCT2020:08:45:00,50.2,14.45,50.3,50.0,49.4,50.3,48.1,37,45,32,0.398,24.0,28.6,21.5,0,0.2,47,0.0,1.8,0.00187,0.00202,48.7,57.5,9,379,.,.,4.28,0.00,0.00
15min,AgWx,beryljct,423,01OCT2020:09:00:00,53.8,14.46,53.4,52.9,51.6,52.9,50.0,30,34,27,0.391,20.8,23.6,19.1,1.622,1.4,334,13,2.5,0.00227,0.00259,48.8,57.4,9,424,.,.,4.27,0.00,0.00
15min,AgWx,beryljct,423,01OCT2020:09:15:00,57.0,14.32,56.0,56.0,54.4,56.0,53.0,28,30,24,0.443,21.6,24.2,19.5,1.315,1.3,320,11,2.1,0.00260,0.00295,48.8,57.3,9,470,.,.,4.27,0.00,0.00
15min,AgWx,beryljct,423,01OCT2020:09:30:00,60.2,14.26,59.3,59.5,58.1,59.5,56.0,25,31,21,0.397,22.1,27.2,18.5,1.162,1.6,7.7,31,3.0,0.00303,0.00346,49.0,57.2,9,519,.,.,4.26,0.00,0.00
15min,AgWx,beryljct,423,01OCT2020:09:45:00,63.2,14.26,61.7,61.9,60.4,61.9,59.4,23,27,21,0.401,22.7,26.6,19.4,2.674,1.9,58,18,3.6,0.00341,0.00392,49.2,57.0,9,566,.,.,4.26,0.00,0.00
15min,AgWx,beryljct,423,01OCT2020:10:00:00,65.7,14.16,63.7,63.6,62.8,63.6,61.8,22,27,19,0.494,23.3,28.7,19.2,6.752,3.6,40,22,6.8,0.00388,0.00466,49.5,56.9,9,597,.,.,4.25,0.00,0.00
15min,AgWx,beryljct,423,01OCT2020:10:15:00,67.2,13.76,64.1,63.7,63.4,63.7,63.1,25,30,21,0.565,26.4,31.6,22.7,5.459,6.0,69,14,8.3,0.00436,0.00546,49.8,56.8,9,640,.,.,4.25,0.00,0.00
15min,AgWx,beryljct,423,01OCT2020:10:30:00,67.9,13.74,64.3,64.6,63.9,64.6,63.5,24,30,21,0.497,26.8,32.2,22.7,5.174,5.7,78,10,7.8,0.00454,0.00564,50.3,56.7,9,673,.,.,4.25,0.00,0.00
15min,AgWx,beryljct,423,01OCT2020:10:45:00,68.6,13.7,65.6,66.0,65.3,66.0,64.5,24,28,20,0.440,27.2,31.2,23.1,2.609,3.6,79,19,6.8,0.00458,0.00544,50.8,56.6,9,702,.,.,4.25,0.00,0.00
15min,AgWx,beryljct,423,01OCT2020:11:00:00,70.2,13.68,69.4,68.6,67.4,68.6,65.9,23,28,20,0.526,28.0,33.6,23.2,0,2.2,128,37,3.6,0.00468,0.00535,51.4,56.6,9,729,.,.,4.24,0.00,0.00
15min,AgWx,beryljct,423,01OCT2020:11:15:00,72.3,13.65,70.9,71.0,70.1,71.1,68.8,22,25,19,0.570,29.4,33.8,26.6,3.683,1.9,172,55,7.3,0.00488,0.00553,52.0,56.5,9,752,.,.,4.24,0.00,0.00
15min,AgWx,beryljct,423,01OCT2020:11:30:00,74.2,13.64,73.1,72.7,72.1,72.9,71.0,22,30,19,0.597,31.5,39.9,26.8,10.59,8.3,66,20,13.8,0.00582,0.00746,52.7,56.4,9,769,.,.,4.24,0.00,0.00
15min,AgWx,beryljct,423,01OCT2020:11:45:00,75.2,13.62,73.4,73.4,73.0,73.6,72.6,21,25,18,0.576,30.8,35.2,26.6,10.15,10.0,63,10,15.3,0.00613,0.00805,53.4,56.4,9,778,.,.,4.23,0.00,0.00
15min,AgWx,beryljct,423,01OCT2020:12:00:00,76.0,13.58,73.8,74.3,73.7,74.5,73.2,20,26,17,0.582,30.0,37.2,25.6,12.28,10.1,59,13,15.0,0.00627,0.00825,54.1,56.4,9,789,.,.,4.24,0.01,0.00
15min,AgWx,beryljct,423,01OCT2020:12:15:00,76.7,13.56,74.5,74.6,74.4,74.8,74.1,20,24,16,0.589,30.2,35.2,25.2,14.69,11.0,56,14,16.5,0.00647,0.00858,54.9,56.4,9,797,.,.,4.24,0.00,0.00
15min,AgWx,beryljct,423,01OCT2020:12:30:00,77.1,13.57,76.1,75.9,75.0,75.9,74.4,20,25,17,0.714,31.5,36.8,27.0,12.98,11.0,68,13,18.2,0.00653,0.00866,55.5,56.4,9,799,.,.,4.23,0.00,0.00
15min,AgWx,beryljct,423,01OCT2020:12:45:00,77.7,13.52,75.9,75.6,75.6,76.0,75.1,18,22,15,0.520,29.2,34.5,23.9,10.57,10.9,58,13,16.1,0.00662,0.00880,56.2,56.4,9,800,.,.,4.24,0.00,0.00
15min,AgWx,beryljct,423,01OCT2020:13:00:00,78.4,13.48,75.8,76.2,76.0,76.4,75.5,18,21,15,0.648,29.6,33.5,25.7,8.92,11.0,56,17,15.0,0.00661,0.00881,56.8,56.4,9,791,.,.,4.24,0.00,0.00
15min,AgWx,beryljct,423,01OCT2020:13:15:00,79.0,13.53,76.9,76.7,76.4,77.1,76.0,19,23,14,0.612,30.4,35.9,24.4,9.03,10.8,74,9.3,18.0,0.00655,0.00872,57.4,56.5,9,782,.,.,4.24,0.00,0.00
15min,AgWx,beryljct,423,01OCT2020:13:30:00,79.7,13.49,78.0,77.8,77.4,77.9,76.9,17,22,14,0.556,29.3,35.7,23.8,12.41,10.1,57,20,15.7,0.00646,0.00857,57.9,56.6,9,766,.,.,4.24,0.00,0.00
15min,AgWx,beryljct,423,01OCT2020:13:45:00,80.5,13.45,78.1,77.9,77.8,78.0,77.6,16,19,13,0.516,28.1,33.0,23.9,11.47,12.0,55,15,18.1,0.00666,0.00909,58.5,56.7,9,749,.,.,4.24,0.00,0.00
15min,AgWx,beryljct,423,01OCT2020:14:00:00,81.2,13.43,77.7,77.8,78.0,78.3,77.7,16,21,13,0.452,28.2,35.3,23.1,13.07,11.3,56,16,14.4,0.00645,0.00877,59.0,56.8,9,728,.,.,4.24,0.00,0.00
15min,AgWx,beryljct,423,01OCT2020:14:15:00,81.6,13.43,77.5,78.0,78.0,78.4,77.8,16,20,13,0.509,28.6,33.8,23.0,9.69,10.7,58,12,14.5,0.00622,0.00845,59.5,56.9,9,704,.,.,4.23,0.00,0.00
15min,AgWx,beryljct,423,01OCT2020:14:30:00,82.0,13.45,78.3,78.3,78.3,78.7,77.8,16,20,13,0.476,28.2,33.4,22.7,8.59,10.1,57,18,14.4,0.00589,0.00802,59.9,57.0,9,661,.,.,4.24,0.01,0.00
15min,AgWx,beryljct,423,01OCT2020:14:45:00,82.4,13.43,78.4,78.7,78.7,79.1,78.3,15,20,12,0.546,27.8,34.9,22.7,5.963,9.9,54,13,15.9,0.00567,0.00778,60.3,57.1,9,626,.,.,4.24,0.00,0.00
15min,AgWx,beryljct,423,01OCT2020:15:00:00,82.8,13.4,78.4,78.6,78.9,79.3,78.5,16,21,12,0.424,28.4,36.0,22.7,11.29,10.1,59,12,15.4,0.00559,0.00771,60.7,57.3,9,610,.,.,4.23,0.00,0.00
15min,AgWx,beryljct,423,01OCT2020:15:15:00,82.9,13.4,78.7,79.0,79.0,79.4,78.5,14,17,11,0.491,24.9,30.4,19.3,9.62,11.0,61,13,14.8,0.00553,0.00784,61.0,57.4,9,568,.,.,4.24,0.00,0.00
15min,AgWx,beryljct,423,01OCT2020:15:30:00,82.9,13.45,79.1,78.8,78.9,79.2,78.8,14,18,12,0.425,25.2,31.3,21.2,12.85,11.2,65,10,15.0,0.00534,0.00765,61.4,57.6,9,536,.,.,4.24,0.00,0.00
15min,AgWx,beryljct,423,01OCT2020:15:45:00,82.7,13.46,78.3,78.4,78.9,79.2,78.4,14,16,11,0.471,25.0,29.1,20.0,11.16,11.3,68,10,16.0,0.00508,0.00741,61.6,57.7,9,490,.,.,4.24,0.00,0.00
15min,AgWx,beryljct,423,01OCT2020:16:00:00,82.4,13.4,77.9,78.2,78.6,79.0,78.2,14,16,11,0.484,24.8,29.4,20.5,9.91,11.4,61,11,14.7,0.00477,0.00708,61.8,57.9,9,439,.,.,4.24,0.00,0.00
15min,AgWx,beryljct,423,01OCT2020:16:15:00,82.0,13.4,78.4,78.2,78.3,78.8,77.7,14,17,11,0.437,24.4,29.1,19.7,12.65,11.1,62,8.3,16.1,0.00438,0.00661,62.0,58.1,9,392,.,.,4.24,0.00,0.00
15min,AgWx,beryljct,423,01OCT2020:16:30:00,81.5,13.41,78.4,78.0,78.1,78.4,77.5,14,18,12,0.404,24.5,30.3,20.8,10.94,10.6,63,9.6,14.5,0.00400,0.00614,62.1,58.2,9,345,.,.,4.24,0.00,0.00
15min,AgWx,beryljct,423,01OCT2020:16:45:00,80.9,13.47,76.7,76.7,77.5,78.1,76.7,15,19,12,0.534,25.9,31.8,20.7,8.4,9.4,61,9.6,12.9,0.00340,0.00530,62.1,58.4,9,294,.,.,4.24,0.00,0.00
15min,AgWx,beryljct,423,01OCT2020:17:00:00,80.2,13.45,77.3,76.3,76.8,77.4,76.1,16,20,13,0.463,26.4,32.1,22.1,9.23,8.3,61,8.9,12.0,0.00282,0.00448,62.1,58.5,9,244,.,.,4.24,0.00,0.00
15min,AgWx,beryljct,423,01OCT2020:17:15:00,79.3,13.47,75.2,76.1,76.4,77.4,75.4,14,16,11,0.406,23.5,26.8,18.8,10.81,9.5,58,8.2,12.5,0.00276,0.00461,62.1,58.7,9,197,.,.,4.24,0.00,0.00
15min,AgWx,beryljct,423,01OCT2020:17:30:00,78.1,13.53,74.3,74.2,74.9,76.1,74.0,15,17,13,0.441,24.0,27.0,21.0,7.234,8.2,59,9.3,11.7,0.00143,0.00190,62.0,58.9,9,151,.,.,4.24,0.00,0.00
15min,AgWx,beryljct,423,01OCT2020:17:45:00,76.4,13.55,72.8,72.5,73.1,74.3,72.1,16,18,14,0.409,23.8,25.9,21.2,8.29,7.0,54,6.3,8.9,0.00114,0.00155,61.9,59.0,9,103,.,.,4.24,0.00,0.00
15min,AgWx,beryljct,423,01OCT2020:18:00:00,74.3,13.16,70.3,70.0,71.1,72.5,69.9,16,18,15,0.398,22.9,24.3,21.6,6.357,6.8,49,6.0,9.8,0.00096,0.00132,61.7,59.1,9,58,.,.,4.24,0.00,0.00
15min,AgWx,beryljct,423,01OCT2020:18:15:00,71.6,13.07,66.6,66.5,68.6,70.0,66.5,16,19,14,0.411,21.0,23.5,18.4,2.039,3.5,50,6.5,6.1,0.00035,0.00056,61.5,59.3,9,12,.,.,4.25,0.00,0.00
15min,AgWx,beryljct,423,01OCT2020:18:30:00,68.5,13.03,66.7,66.9,67.1,67.4,66.3,15,19,14,0.318,17.9,22.5,15.8,2.017,2.0,49,7.1,2.9,0.00002,0.00010,61.2,59.4,9,3,.,.,4.25,0.00,0.00
15min,AgWx,beryljct,423,01OCT2020:18:45:00,65.9,13.01,64.7,65.3,65.5,66.7,64.4,15,17,14,0.322,17.2,19.6,15.1,1.425,1.6,27,32,2.8,-0.00010,-0.00008,61.0,59.5,9,0,.,.,4.25,0.00,0.00
15min,AgWx,beryljct,423,01OCT2020:19:00:00,63.7,12.99,63.4,64.0,65.0,65.4,64.0,15,16,14,0.319,16.3,17.6,15.2,0,0.5,36,48,1.9,-0.00039,-0.00057,60.7,59.6,9,0,.,.,4.26,0.01,0.00
15min,AgWx,beryljct,423,01OCT2020:19:15:00,61.9,13.01,59.0,59.6,63.1,64.0,59.6,18,31,14,0.433,17.9,30.4,14.3,2.784,1.0,128,34,3.4,-0.00024,-0.00033,60.4,59.7,9,0,.,.,4.25,0.00,0.00
15min,AgWx,beryljct,423,01OCT2020:19:30:00,60.2,12.97,59.1,59.7,60.3,61.9,58.7,22,29,16,0.388,21.0,27.7,15.7,0,2.0,182,28,3.5,-0.00001,0.00004,60.1,59.8,9,0,.,.,4.25,0.00,0.00
15min,AgWx,beryljct,423,01OCT2020:19:45:00,58.8,12.96,60.8,60.3,60.9,62.3,58.8,19,27,16,0.383,18.6,24.9,15.2,0,0.3,199,12,1.6,-0.00041,-0.00063,59.8,59.9,9,0,.,.,4.26,0.00,0.00
15min,AgWx,beryljct,423,01OCT2020:20:00:00,57.5,12.98,63.2,61.6,61.1,61.7,60.2,18,22,16,0.304,17.7,22.3,14.7,1.184,0.3,254,24,2.2,-0.00041,-0.00063,59.4,59.9,9,0,.,.,4.26,0.00,0.00
15min,AgWx,beryljct,423,01OCT2020:20:15:00,56.7,12.96,61.1,61.1,61.2,62.2,59.9,16,19,14,0.295,14.9,17.8,12.5,0,0.3,359,18,2.1,-0.00041,-0.00063,59.1,59.9,9,0,.,.,4.25,0.00,0.00
15min,AgWx,beryljct,423,01OCT2020:20:30:00,56.2,12.95,60.1,59.0,59.6,61.5,56.1,20,32,15,0.299,17.8,26.7,13.5,1.732,0.8,213,27,1.8,-0.00026,-0.00036,58.8,60.0,9,0,.,.,4.26,0.00,0.00
15min,AgWx,beryljct,423,01OCT2020:20:45:00,55.6,12.96,57.6,57.5,59.4,60.9,57.3,21,25,17,0.376,19.2,23.3,15.2,0,2.1,245,18,3.6,0.00001,0.00008,58.5,60.0,9,0,.,.,4.25,0.00,0.00
15min,AgWx,beryljct,423,01OCT2020:21:00:00,54.8,12.93,48.8,52.7,55.8,59.2,51.0,30,44,20,0.478,24.0,30.5,18.0,2.28,1.2,268,13,3.5,-0.00017,-0.00021,58.2,60.0,9,0,.,.,4.26,0.01,0.00
15min,AgWx,beryljct,423,01OCT2020:21:15:00,53.8,12.91,54.9,53.4,53.8,58.0,49.6,27,42,18,0.309,20.4,28.0,13.8,3.288,3.3,308,9.5,4.6,0.00016,0.00027,57.8,60.0,9,0,.,.,4.26,0.00,0.00
15min,AgWx,beryljct,423,01OCT2020:21:30:00,52.8,12.93,59.1,55.3,52.9,55.3,50.9,30,39,20,0.354,21.7,27.4,14.2,2.148,2.7,278,16,4.5,0.00008,0.00015,57.5,60.0,9,0,.,.,4.26,0.00,0.00
15min,AgWx,beryljct,423,01OCT2020:21:45:00,52.3,12.93,57.3,55.3,56.1,59.5,51.4,25,36,17,0.361,20.4,26.0,14.9,0.767,1.6,336,33,4.6,-0.00008,-0.00007,57.2,60.0,10,0,.,.,4.26,0.00,0.00
15min,AgWx,beryljct,423,01OCT2020:22:00:00,51.8,12.92,59.4,57.3,54.5,57.5,51.6,31,41,22,0.348,24.2,29.3,18.5,2.631,1.8,256,23,2.8,-0.00007,-0.00006,56.9,60.0,9,0,.,.,4.26,0.00,0.00
15min,AgWx,beryljct,423,01OCT2020:22:15:00,51.6,12.91,56.6,56.0,57.2,59.8,54.3,27,39,17,0.491,22.5,30.0,15.1,1.6,1.8,279,11,2.7,-0.00004,-0.00001,56.6,59.9,9,0,.,.,4.26,0.00,0.00
15min,AgWx,beryljct,423,01OCT2020:22:30:00,51.4,12.91,54.1,56.5,56.5,59.7,53.4,27,35,18,0.404,22.7,29.4,15.7,3.946,2.4,287,25,4.2,0.00004,0.00011,56.3,59.9,9,0,.,.,4.26,0.00,0.00
15min,AgWx,beryljct,423,01OCT2020:22:45:00,51.4,12.9,47.8,49.6,55.4,57.3,49.6,27,42,21,0.502,21.2,27.2,17.3,1.951,3.3,305,7.6,4.3,0.00017,0.00028,56.1,59.8,9,0,.,.,4.27,0.00,0.00
15min,AgWx,beryljct,423,01OCT2020:23:00:00,50.6,12.89,48.3,48.8,49.3,50.4,48.5,43,47,38,0.557,27.8,29.8,25.7,0,1.3,292,12,2.8,-0.00014,-0.00017,55.8,59.8,9,0,.,.,4.26,0.00,0.00
15min,AgWx,beryljct,423,01OCT2020:23:15:00,49.3,12.87,48.2,46.9,47.1,48.7,45.8,48,54,40,0.552,28.2,31.0,23.2,0,0.5,304,8.2,2.3,-0.00027,-0.00040,55.5,59.7,9,0,.,.,4.27,0.01,0.00
15min,AgWx,beryljct,423,01OCT2020:23:30:00,47.9,12.87,44.7,44.7,45.3,47.0,44.6,55,61,49,0.535,29.8,32.1,27.5,0.373,0.0,280,0.1,0.4,-0.00033,-0.00053,55.3,59.7,9,0,.,.,4.27,0.00,0.00
15min,AgWx,bigpiney,439,01OCT2020:00:00:00,42.3,12.61,32.3,37.0,39.4,39.7,37.0,44,44,43,0.330,19.1,19.4,17.3,2.433,2.5,357,62,4.9,-0.00002,-0.00000,46.4,46.7,44,0,0,0.0,0.05,0.00,0.00
15min,AgWx,bigpiney,439,01OCT2020:00:15:00,41.3,12.61,40.6,38.8,36.6,39.1,32.2,47,53,44,0.352,18.4,19.4,15.7,2.916,2.0,209,18,3.7,-0.00007,-0.00007,46.3,46.7,44,0,0,0.0,0.05,0.00,0.00
15min,AgWx,bigpiney,439,01OCT2020:00:30:00,40.4,12.6,33.5,37.9,40.2,42.5,37.0,42,47,39,0.357,19.2,19.8,17.7,4.384,2.5,220,6.9,4.4,-0.00002,0.00000,46.3,46.7,44,0,0,0.0,0.05,0.00,0.00
15min,AgWx,bigpiney,439,01OCT2020:00:45:00,39.0,12.59,32.6,32.9,32.1,37.5,30.3,55,59,45,0.346,17.6,19.0,16.8,6.357,5.2,226,4.4,6.4,0.00007,0.00011,46.2,46.6,44,0,0,0.0,0.05,0.00,0.00
15min,AgWx,bigpiney,439,01OCT2020:01:00:00,37.6,12.59,30.6,30.7,31.9,33.7,30.3,56,60,53,0.346,18.2,19.0,17.3,4.494,6.4,231,4.1,7.9,0.00010,0.00014,46.2,46.6,44,0,0,0.0,0.05,0.00,0.00
15min,AgWx,bigpiney,439,01OCT2020:01:15:00,36.5,12.57,37.0,35.4,32.7,35.4,30.6,56,60,52,0.362,18.6,19.5,17.8,4.165,4.5,226,11,7.1,0.00005,0.00008,46.1,46.6,44,0,0,0.0,0.05,0.00,0.00
15min,AgWx,bigpiney,439,01OCT2020:01:30:00,36.1,12.56,33.8,33.2,33.9,35.5,33.0,52,54,50,0.338,18.2,19.3,17.5,6.927,5.7,229,11,7.4,0.00011,0.00015,46.1,46.7,44,0,0,0.0,0.05,0.00,0.00
15min,AgWx,bigpiney,439,01OCT2020:01:45:00,36.0,12.55,32.4,32.6,33.5,34.0,32.6,52,53,51,0.332,17.5,17.8,17.3,8.59,6.9,218,4.8,8.9,0.00014,0.00019,46.0,46.7,44,0,0,0.0,0.05,0.00,0.00
15min,AgWx,bigpiney,439,01OCT2020:02:00:00,35.9,12.55,30.7,30.5,31.6,32.5,30.5,56,58,53,0.336,17.8,18.3,17.3,6.379,7.1,221,6.1,10.0,0.00012,0.00015,46.0,46.7,44,0,0,0.0,0.05,0.00,0.00
15min,AgWx,bigpiney,439,01OCT2020:02:15:00,35.6,12.53,29.5,29.8,30.3,30.9,29.3,59,60,58,0.327,17.6,18.1,16.7,5.042,5.7,218,3.9,7.0,0.00007,0.00010,45.9,46.7,44,0,0,0.0,0.05,0.00,0.00
15min,AgWx,bigpiney,439,01OCT2020:02:30:00,34.9,12.53,30.8,30.4,29.6,30.6,29.1,59,60,57,0.329,16.9,17.2,16.5,5.7,5.7,212,5.4,6.6,0.00007,0.00010,45.9,46.7,44,0,0,0.0,0.05,0.00,0.00
15min,AgWx,bigpiney,439,01OCT2020:02:45:00,34.3,12.52,27.9,28.4,28.6,30.5,26.1,61,68,57,0.313,16.9,17.3,16.0,3.836,5.8,180,28,7.3,0.00006,0.00008,45.8,46.7,44,0,0,0.0,0.05,0.00,0.00
15min,AgWx,bigpiney,439,01OCT2020:03:00:00,33.7,12.52,32.4,32.6,31.0,32.6,28.1,53,60,49,0.308,16.1,17.0,15.6,5.502,4.7,199,8.5,6.7,0.00006,0.00009,45.8,46.7,44,0,0,0.0,0.05,0.00,0.00
15min,AgWx,bigpiney,439,01OCT2020:03:15:00,33.4,12.51,30.2,29.1,31.0,32.7,28.6,53,59,49,0.316,15.7,16.3,15.3,6.029,5.5,221,12,6.3,0.00009,0.00013,45.7,46.7,44,0,0,0.0,0.05,0.00,0.00
15min,AgWx,bigpiney,439,01OCT2020:03:30:00,33.0,12.49,28.7,28.4,28.9,29.7,28.2,59,60,57,0.315,16.2,16.4,16.0,5.064,6.0,239,2.6,6.7,0.00007,0.00010,45.6,46.6,44,0,0,0.0,0.05,0.00,0.00
15min,AgWx,bigpiney,439,01OCT2020:03:45:00,32.5,12.48,30.2,28.3,28.2,28.7,27.4,60,61,59,0.320,16.1,16.6,15.6,7.147,5.4,236,5.3,7.1,0.00005,0.00008,45.6,46.7,44,0,0,0.0,0.05,0.00,0.00
15min,AgWx,bigpiney,439,01OCT2020:04:00:00,31.9,12.48,28.3,27.7,29.4,32.0,27.7,57,61,52,0.304,16.1,17.1,15.3,3.88,4.9,236,8.3,7.2,0.00005,0.00008,45.5,46.6,44,0,0,0.0,0.05,0.00,0.00
15min,AgWx,bigpiney,439,01OCT2020:04:15:00,31.3,12.47,23.7,23.3,26.5,28.4,23.1,61,68,57,0.288,14.9,16.1,11.8,0,3.3,232,26,4.9,-0.00002,-0.00000,45.5,46.6,44,0,0,0.0,0.05,0.00,0.00
15min,AgWx,bigpiney,439,01OCT2020:04:30:00,30.6,12.45,28.1,27.4,25.8,27.6,23.3,64,68,60,0.306,15.2,15.7,14.2,0,1.2,241,12,2.4,-0.00013,-0.00016,45.4,46.7,44,0,0,0.0,0.05,0.00,0.00
15min,AgWx,bigpiney,439,01OCT2020:04:45:00,29.8,12.45,23.4,24.0,26.5,27.7,24.0,60,64,58,0.278,14.6,15.6,12.9,5.02,2.2,219,5.5,5.0,-0.00007,-0.00008,45.3,46.6,44,0,0,0.0,0.05,0.00,0.00
15min,AgWx,bigpiney,439,01OCT2020:05:00:00,28.8,12.44,22.7,23.4,23.4,24.3,22.5,65,66,64,0.276,13.5,14.2,12.8,3.924,4.2,224,3.9,5.0,-0.00000,0.00001,45.3,46.6,44,0,0,0.0,0.05,0.00,0.00
15min,AgWx,bigpiney,439,01OCT2020:05:15:00,27.8,12.42,27.1,26.0,24.5,26.0,22.4,63,67,61,0.291,13.9,15.0,11.5,2.389,2.3,246,16,3.8,-0.00006,-0.00007,45.2,46.6,44,0,0,0.0,0.05,0.00,0.00
15min,AgWx,bigpiney,439,01OCT2020:05:30:00,26.8,12.41,24.5,27.7,27.1,28.1,26.0,58,61,55,0.292,14.4,14.8,12.9,4.056,2.9,226,6.5,4.2,-0.00003,-0.00002,45.2,46.6,44,0,0,0.0,0.05,0.00,0.00
15min,AgWx,bigpiney,439,01OCT2020:05:45:00,25.9,12.39,25.6,25.9,24.3,28.0,20.9,62,69,56,0.272,13.0,16.0,11.5,0.921,3.0,232,10,5.6,-0.00003,-0.00002,45.1,46.5,44,0,0,0.0,0.05,0.00,0.00
15min,AgWx,bigpiney,439,01OCT2020:06:00:00,25.3,12.39,27.4,27.8,27.4,28.5,25.4,57,60,55,0.285,14.1,14.6,12.9,0.899,0.7,289,25,1.2,-0.00017,-0.00024,45.1,46.5,44,0,0,0.0,0.05,0.00,0.00
15min,AgWx,bigpiney,439,01OCT2020:06:15:00,25.0,12.38,26.1,26.1,27.0,27.8,25.3,57,59,55,0.279,13.7,14.1,12.2,1.556,1.9,276,21,3.2,-0.00007,-0.00008,45.0,46.5,44,2,0,0.0,0.05,0.00,0.00
15min,AgWx,bigpiney,439,01OCT2020:06:30:00,24.7,12.39,23.2,23.4,24.9,26.3,22.3,61,68,58,0.285,13.2,14.2,12.1,3.135,2.1,243,24,3.8,-0.00005,-0.00005,44.9,46.5,44,13,0,0.0,0.05,0.00,0.00
15min,AgWx,bigpiney,439,01OCT2020:06:45:00,24.4,12.46,21.6,21.0,21.4,24.9,19.8,69,73,62,0.281,12.7,14.7,11.1,3.771,3.7,226,5.1,4.8,-0.00004,0.00005,44.9,46.6,44,44,0,0.0,0.05,0.00,0.00
15min,AgWx,bigpiney,439,01OCT2020:07:00:00,24.5,12.67,25.5,24.9,22.6,24.9,21.0,72,72,70,0.318,14.9,16.4,13.6,2.674,3.0,228,4.2,3.9,0.00003,0.00011,44.8,46.5,44,78,0,0.0,0.05,0.00,0.00
15min,AgWx,bigpiney,439,01OCT2020:07:15:00,25.3,13.09,28.1,27.3,25.6,27.3,24.6,71,72,69,0.359,17.6,19.2,16.1,3.266,3.2,213,3.8,4.0,0.00018,0.00027,44.7,46.5,44,119,0,0.0,0.05,0.00,0.00
15min,AgWx,bigpiney,439,01OCT2020:07:30:00,26.8,13.47,32.0,31.2,29.1,31.2,27.3,69,71,67,0.396,20.2,21.5,19.1,0.811,2.0,217,7.0,3.2,0.00029,0.00038,44.7,46.5,44,153,0,0.0,0.05,0.00,0.00
15min,AgWx,bigpiney,439,01OCT2020:07:45:00,29.1,13.74,36.1,35.6,33.8,35.6,31.3,62,67,53,0.372,22.0,23.2,20.0,0,0.1,239,30,0.9,0.00041,0.00044,44.6,46.4,44,189,0,0.0,0.05,0.00,0.00
15min,AgWx,bigpiney,439,01OCT2020:08:00:00,32.1,14.86,37.4,37.5,36.9,37.6,35.6,53,54,51,0.407,21.3,22.5,20.1,0.745,0.1,93,13,1.0,0.00064,0.00069,44.5,46.4,44,228,0,0.0,0.05,0.00,0.00
15min,AgWx,bigpiney,439,01OCT2020:08:15:00,35.3,14.76,40.7,39.4,38.5,39.4,37.5,54,55,53,0.443,23.1,24.2,22.1,1.184,0.6,79,18,2.6,0.00090,0.00100,44.4,46.4,44,267,0,0.0,0.05,0.00,0.00
15min,AgWx,bigpiney,439,01OCT2020:08:30:00,38.5,14.63,39.7,40.6,39.9,40.9,39.2,54,55,53,0.452,24.5,25.4,23.8,3.069,1.8,71,23,3.5,0.00120,0.00140,44.4,46.4,44,312,0,0.0,0.05,0.00,0.00
15min,AgWx,bigpiney,439,01OCT2020:08:45:00,41.5,14.74,41.5,41.8,41.0,41.8,40.4,53,54,52,0.463,25.0,25.7,24.4,3.595,2.0,82,29,4.3,0.00147,0.00169,44.3,46.4,44,360,0,0.0,0.05,0.00,0.00